Terminal Aerodrome Forecast
Issued by NWS

Home | Current Version | Previous Version | Text Only | Print | Product List | Glossary On
Versions: 1 2 3 4 5 6 7 8 9 10 11 12
000
FTUS46 KHNX 051720
TAFFAT
TAF
KFAT 051720Z 0518/0618 VRB03KT P6SM FEW060
     FM052300 31008KT P6SM FEW200
     FM060800 VRB03KT P6SM SKC=

USA.gov is the U.S. government's official web portal to all federal, state and local government web resources and services.